When you browse on this site, cookies collect data to enhance your experience and personalize the content and advertising you see.
Visit our Privacy Policy to learn more. By continuing to use the site, you agree to this use of cookies and data.
  • In Hungary
  • List of Countries
  • For 7 days
  • Water Temperature
  • Weather Map
  • News
  • Weather Widgets
  • user-avatar
    Login

    Hourly Weather Andreevskoe

    Today, 4 April, Saturday

    Time Temperature Precipitation Wind Pressure Humidity
    00:00 0°C° 0 mm 4 mps 739 mmHg 81%
    01:00 -1°C° 0 mm 4 mps 739 mmHg 81%
    02:00 -1°C° 0 mm 4 mps 740 mmHg 81%
    03:00 -1°C° 0 mm 4 mps 740 mmHg 81%
    04:00 -2°C° 0 mm 4 mps 741 mmHg 81%
    05:00 -2°C° 0 mm 4 mps 742 mmHg 81%
    06:00 -1°C° 0 mm 4 mps 742 mmHg 77%
    07:00 -1°C° 0 mm 5 mps 743 mmHg 72%
    08:00 0°C° 0 mm 5 mps 743 mmHg 68%
    09:00 +1°C° 0 mm 5 mps 744 mmHg 61%
    10:00 +2°C° 0 mm 5 mps 744 mmHg 54%
    11:00 +3°C° 0 mm 5 mps 745 mmHg 47%
    12:00 +3°C° 0 mm 5 mps 745 mmHg 44%
    13:00 +5°C° 0 mm 5 mps 746 mmHg 40%
    14:00 +5°C° 0 mm 5 mps 747 mmHg 37%
    15:00 +5°C° 0.1 mm 5 mps 747 mmHg 41%
    16:00 +4°C° 0.1 mm 4 mps 748 mmHg 45%
    17:00 +3°C° 0.1 mm 3 mps 748 mmHg 49%
    18:00 +2°C° 0 mm 3 mps 749 mmHg 54%
    19:00 +2°C° 0 mm 2 mps 749 mmHg 60%
    20:00 +1°C° 0 mm 2 mps 750 mmHg 65%
    21:00 -1°C° 0 mm 2 mps 750 mmHg 66%
    22:00 -1°C° 0 mm 2 mps 751 mmHg 66%
    23:00 -1°C° 0 mm 2 mps 751 mmHg 67%

    Tomorrow, 5 April, Sunday

    Time Temperature Precipitation Wind Pressure Humidity
    00:00 -1°C° 0 mm 2 mps 751 mmHg 67%
    01:00 -1°C° 0 mm 2 mps 751 mmHg 67%
    02:00 -2°C° 0 mm 2 mps 751 mmHg 68%
    03:00 -1°C° 0 mm 2 mps 751 mmHg 69%
    04:00 -1°C° 0 mm 2 mps 751 mmHg 70%
    05:00 -1°C° 0 mm 3 mps 751 mmHg 71%
    06:00 0°C° 0.3 mm 3 mps 752 mmHg 71%
    07:00 -1°C° 0.3 mm 4 mps 752 mmHg 71%
    08:00 -1°C° 0.3 mm 4 mps 752 mmHg 71%
    09:00 0°C° 0.1 mm 5 mps 753 mmHg 60%
    10:00 +1°C° 0.1 mm 5 mps 753 mmHg 50%
    11:00 +2°C° 0.1 mm 6 mps 753 mmHg 39%
    12:00 +2°C° 0 mm 6 mps 754 mmHg 39%
    13:00 +2°C° 0 mm 6 mps 754 mmHg 40%
    14:00 +2°C° 0 mm 6 mps 754 mmHg 40%
    15:00 +2°C° 0.2 mm 6 mps 754 mmHg 43%
    16:00 +1°C° 0.2 mm 5 mps 755 mmHg 47%
    17:00 0°C° 0.2 mm 4 mps 755 mmHg 50%
    18:00 -1°C° 0 mm 4 mps 755 mmHg 54%
    19:00 -1°C° 0 mm 3 mps 756 mmHg 59%
    20:00 -2°C° 0 mm 3 mps 756 mmHg 63%
    21:00 -2°C° 0 mm 3 mps 757 mmHg 64%
    22:00 -4°C° 0 mm 3 mps 757 mmHg 65%
    23:00 -3°C° 0 mm 2 mps 757 mmHg 66%

    Day after tomorrow, 6 April, Monday

    Time Temperature Precipitation Wind Pressure Humidity
    00:00 -3°C° 0 mm 2 mps 758 mmHg 65%
    01:00 -3°C° 0 mm 2 mps 758 mmHg 64%
    02:00 -5°C° 0 mm 3 mps 759 mmHg 64%
    03:00 -5°C° 0 mm 3 mps 759 mmHg 64%
    04:00 -5°C° 0 mm 3 mps 759 mmHg 64%
    05:00 -4°C° 0 mm 2 mps 760 mmHg 64%
    06:00 -4°C° 0 mm 3 mps 760 mmHg 56%
    07:00 -1°C° 0 mm 3 mps 760 mmHg 49%
    08:00 0°C° 0 mm 3 mps 761 mmHg 41%
    09:00 +1°C° 0 mm 3 mps 761 mmHg 39%
    10:00 +1°C° 0 mm 3 mps 761 mmHg 36%
    11:00 +2°C° 0 mm 3 mps 761 mmHg 34%
    12:00 +3°C° 0 mm 3 mps 761 mmHg 35%
    13:00 +3°C° 0 mm 3 mps 761 mmHg 36%
    14:00 +4°C° 0 mm 3 mps 761 mmHg 37%
    15:00 +4°C° 0 mm 2 mps 761 mmHg 42%
    16:00 +4°C° 0 mm 2 mps 761 mmHg 48%
    17:00 +5°C° 0 mm 1 mps 761 mmHg 54%
    18:00 +3°C° 0 mm 1 mps 761 mmHg 57%
    19:00 +1°C° 0 mm 0 mps 761 mmHg 60%
    20:00 0°C° 0 mm 0 mps 761 mmHg 63%
    21:00 0°C° 0 mm 0 mps 762 mmHg 64%
    22:00 +1°C° 0 mm 1 mps 762 mmHg 65%
    23:00 +1°C° 0 mm 1 mps 762 mmHg 66%

    7 April, Tuesday

    Time Temperature Precipitation Wind Pressure Humidity
    00:00 +1°C° 0 mm 1 mps 762 mmHg 69%
    01:00 +1°C° 0 mm 1 mps 762 mmHg 71%
    02:00 +1°C° 0 mm 1 mps 762 mmHg 73%
    03:00 -1°C° 0 mm 2 mps 761 mmHg 78%
    04:00 -1°C° 0 mm 2 mps 761 mmHg 83%
    05:00 +1°C° 0 mm 2 mps 761 mmHg 87%
    06:00 +1°C° 0 mm 3 mps 761 mmHg 85%
    07:00 +3°C° 0 mm 3 mps 760 mmHg 82%
    08:00 +4°C° 0 mm 3 mps 760 mmHg 80%
    09:00 +6°C° 0 mm 4 mps 759 mmHg 73%
    10:00 +8°C° 0 mm 4 mps 759 mmHg 66%
    11:00 +11°C° 0 mm 4 mps 758 mmHg 59%
    12:00 +12°C° 0 mm 4 mps 758 mmHg 55%
    13:00 +12°C° 0 mm 4 mps 757 mmHg 51%
    14:00 +13°C° 0 mm 5 mps 757 mmHg 47%
    15:00 +13°C° 0 mm 4 mps 756 mmHg 50%
    16:00 +12°C° 0 mm 3 mps 756 mmHg 52%
    17:00 +12°C° 0 mm 3 mps 755 mmHg 54%
    18:00 +11°C° 0 mm 3 mps 755 mmHg 59%
    19:00 +9°C° 0 mm 3 mps 755 mmHg 63%
    20:00 +8°C° 0 mm 3 mps 754 mmHg 67%
    21:00 +7°C° 0 mm 3 mps 754 mmHg 68%
    22:00 +7°C° 0 mm 3 mps 753 mmHg 70%
    23:00 +7°C° 0 mm 3 mps 753 mmHg 71%

    8 April, Wednesday

    Time Temperature Precipitation Wind Pressure Humidity
    00:00 +7°C° 0 mm 3 mps 752 mmHg 70%
    01:00 +6°C° 0 mm 4 mps 752 mmHg 69%
    02:00 +7°C° 0 mm 4 mps 751 mmHg 68%
    03:00 +6°C° 0.2 mm 4 mps 751 mmHg 74%
    04:00 +6°C° 0.2 mm 4 mps 751 mmHg 79%
    05:00 +6°C° 0.2 mm 4 mps 750 mmHg 85%
    06:00 +6°C° 0 mm 5 mps 750 mmHg 82%
    07:00 +7°C° 0 mm 5 mps 750 mmHg 80%
    08:00 +7°C° 0 mm 6 mps 750 mmHg 77%
    09:00 +8°C° 0 mm 6 mps 751 mmHg 74%
    10:00 +8°C° 0 mm 6 mps 751 mmHg 71%
    11:00 +9°C° 0 mm 6 mps 752 mmHg 68%
    12:00 +8°C° 0 mm 6 mps 752 mmHg 65%
    13:00 +8°C° 0 mm 6 mps 752 mmHg 63%
    14:00 +8°C° 0 mm 5 mps 753 mmHg 60%
    15:00 +8°C° 0 mm 5 mps 753 mmHg 59%
    16:00 +8°C° 0 mm 4 mps 753 mmHg 57%
    17:00 +9°C° 0 mm 3 mps 753 mmHg 56%
    18:00 +8°C° 0 mm 3 mps 754 mmHg 62%
    19:00 +6°C° 0 mm 2 mps 754 mmHg 68%
    20:00 +6°C° 0 mm 1 mps 754 mmHg 74%
    21:00 +5°C° 0 mm 1 mps 754 mmHg 76%
    22:00 +4°C° 0 mm 1 mps 754 mmHg 79%
    23:00 +3°C° 0 mm 0 mps 754 mmHg 81%

    9 April, Thursday

    Time Temperature Precipitation Wind Pressure Humidity
    00:00 +4°C° 0 mm 1 mps 753 mmHg 81%
    01:00 +3°C° 0 mm 1 mps 753 mmHg 82%
    02:00 +2°C° 0 mm 2 mps 752 mmHg 82%
    03:00 +2°C° 0 mm 2 mps 752 mmHg 83%
    04:00 +2°C° 0 mm 2 mps 751 mmHg 84%
    05:00 +1°C° 0 mm 3 mps 751 mmHg 85%
    06:00 +3°C° 0 mm 3 mps 750 mmHg 78%
    07:00 +4°C° 0 mm 4 mps 750 mmHg 70%
    08:00 +6°C° 0 mm 5 mps 749 mmHg 63%
    09:00 +7°C° 0 mm 5 mps 749 mmHg 58%
    10:00 +9°C° 0 mm 5 mps 748 mmHg 53%
    11:00 +10°C° 0 mm 6 mps 748 mmHg 48%
    12:00 +10°C° 0 mm 6 mps 747 mmHg 51%
    13:00 +10°C° 0 mm 6 mps 747 mmHg 54%
    14:00 +10°C° 0 mm 6 mps 747 mmHg 56%
    15:00 +9°C° 0 mm 6 mps 746 mmHg 59%
    16:00 +9°C° 0 mm 5 mps 746 mmHg 61%
    17:00 +8°C° 0 mm 5 mps 746 mmHg 64%
    18:00 +7°C° 0 mm 5 mps 746 mmHg 62%
    19:00 +6°C° 0 mm 4 mps 747 mmHg 59%
    20:00 +4°C° 0 mm 4 mps 747 mmHg 57%
    21:00 +3°C° 0 mm 4 mps 747 mmHg 61%
    22:00 +2°C° 0 mm 3 mps 747 mmHg 64%
    23:00 +1°C° 0 mm 3 mps 748 mmHg 68%
    Show more